Date,TemperatureHighF,TemperatureAvgF,TemperatureLowF,DewpointHighF,DewpointAvgF,DewpointLowF,HumidityHigh,HumidityAvg,HumidityLow,PressureMaxIn,PressureMinIn,WindSpeedMaxMPH,WindSpeedAvgMPH,GustSpeedMaxMPH,PrecipitationSumIn
2013-2-1,27.0,11.2,-10.0,21.4,7.1,-10.0,100,84,66,30.83,30.30,14,5,24,0.00
2013-2-2,37.0,28.2,22.0,31.6,23.6,17.9,94,83,72,30.48,30.27,22,6,28,0.00
2013-2-3,42.0,31.4,16.0,30.5,23.4,14.6,97,73,49,30.53,30.02,26,6,32,0.00
2013-2-4,37.0,24.9,20.0,31.1,22.4,18.7,100,91,76,30.32,30.01,23,8,31,0.00
2013-2-5,49.0,35.1,24.0,33.3,27.5,22.9,100,78,42,30.37,30.10,26,9,33,0.00
2013-2-6,50.0,38.4,30.0,36.8,31.5,27.2,92,77,55,30.33,30.03,16,4,26,0.00
2013-2-7,40.0,32.0,27.0,35.9,28.9,23.5,99,88,81,30.51,30.13,24,12,31,0.00
2013-2-8,35.0,27.4,24.0,27.5,25.0,22.8,100,91,69,30.60,30.41,12,5,18,0.00
2013-2-9,49.0,36.6,26.0,36.8,31.8,26.0,100,84,60,30.43,29.92,13,7,25,0.00
2013-2-10,46.0,36.0,29.0,44.0,33.1,23.0,100,89,74,30.04,29.46,36,13,50,0.20
2013-2-11,33.0,27.0,17.0,26.4,22.3,17.0,100,83,67,30.48,30.04,33,14,48,0.02
2013-2-12,49.0,30.3,16.0,27.4,20.7,14.2,100,73,27,30.47,30.07,18,5,26,0.00
2013-2-13,53.0,37.4,21.0,31.7,26.0,19.8,100,68,34,30.22,29.87,20,5,30,0.00
2013-2-14,44.0,34.4,18.0,33.0,27.4,14.3,100,77,44,30.58,30.02,28,14,35,0.00
2013-2-15,29.0,18.3,10.0,24.0,16.3,10.0,100,92,66,30.69,30.54,19,7,23,0.00
2013-2-16,35.0,20.5,2.0,25.9,17.1,2.0,100,88,64,30.69,30.27,10,3,15,0.06
2013-2-17,53.0,36.0,18.0,34.8,26.9,18.0,100,73,46,30.33,29.78,13,4,23,0.00
2013-2-18,44.0,29.7,17.0,33.2,24.0,12.7,99,79,62,30.37,29.78,37,16,50,0.00
2013-2-19,23.0,13.1,5.0,13.6,4.5,-3.7,95,72,33,30.74,30.37,30,16,39,0.00
2013-2-20,23.0,14.0,1.0,7.7,4.4,1.0,100,69,43,30.75,30.49,13,6,15,0.00
2013-2-21,24.0,20.4,18.0,21.0,15.4,7.6,100,82,55,30.54,30.16,22,10,29,0.00
2013-2-22,21.0,16.0,7.0,20.0,15.2,7.0,100,97,83,30.38,30.16,19,9,24,0.00
2013-2-23,37.0,19.9,2.0,26.3,16.6,2.0,100,88,62,30.37,30.03,10,3,15,0.00
2013-2-24,41.0,29.7,19.0,28.7,24.8,19.0,100,84,54,30.35,30.13,14,4,17,0.00
2013-2-25,26.0,23.4,22.0,25.0,23.4,22.0,100,100,96,30.37,30.21,14,7,20,0.00
2013-2-26,32.0,26.4,23.0,29.7,25.6,23.0,100,97,90,30.23,30.05,22,12,27,0.00
2013-2-27,36.0,28.5,22.0,27.6,23.8,19.2,100,84,62,30.37,30.17,31,17,41,0.00
2013-2-28,30.0,25.8,23.0,25.5,23.0,20.5,94,89,80,30.51,30.37,25,14,31,0.00